User: anonymous   Login
Location: Chuathbaluk
(61.5726°N, 159.2454°W)
Time: 13:27:59
(UTC+00:00)
Language:

DIWATA 2B (PO-101) - Orbit

View from above orbital plane
View from above orbital plane
View from above satellite
View from above satellite

Ground track
Ground track

The orbit data is extracted from the following two-line orbital elements,

1 43678U 18084H   21016.12008771  .00000393  00000-0  44765-4 0  9990
2 43678  97.9045 140.8268 0009645 186.0830 174.0239 14.91700919120722
Epoch (UTC): 16 January 2021 02:52:55
Eccentricity: 0.0009645
inclination: 97.9045°
perigee height: 586 km
apogee height: 599 km
right ascension of ascending node: 140.8268°
argument of perigee: 186.0830°
revolutions per day: 14.91700919
mean anomaly at epoch: 174.0239°
orbit number at epoch: 12072

The dashed part of the orbit path shows where the satellite is in the earth's shadow,  

DLR